Location: Buchberg
(46.9333°N, 15.8500°E)
Time: 09:42:32
(UTC+00:00)

Cosmos 2346 Rocket - Pass Details

Date: 14 July 2020
Orbit: 936 x 981 km, 82.9° (Epoch: 07 August)

Event Time Altitude Azimuth Distance (km) Brightness Sun altitude
Rises 00:45:46 0° 350° (N) 3,662 8.4 -17.6°
Reaches altitude 10° 00:48:17 10° 350° (N) 2,704 7.6 -17.4°
Maximum altitude 00:54:29 84° 263° (W) 964 4.4 -16.9°
Enters shadow 00:58:51 20° 177° (S) 2,024 5.7 -16.6°
